Location: Artiguedieu
(43.5000°N, 0.5454°E)
Time: 09:53:34
(UTC+00:00)

Explorer 7 - Pass Details

Date: 08 August 2021
Orbit: 484 x 676 km, 50.3° (Epoch: 22 September)

Event Time Altitude Azimuth Distance (km) Brightness Sun altitude
Rises 02:22:03 0° 233° (SW) 2,541 - -22.5°
Reaches altitude 10° 02:24:13 10° 231° (SW) 1,658 - -22.3°
Maximum altitude 02:27:55 71° 148° (SSE) 514 - -21.9°
Exits shadow 02:28:10 68° 114° (ESE) 525 6.6 -21.8°
Drops below altitude 10° 02:31:42 10° 64° (ENE) 1,686 10.2 -21.4°
Sets 02:33:55 0° 62° (ENE) 2,588 11.4 -21.2°
